Regional Weather Roundup
Issued by NWS Northern Indiana

Home | Current Version | Previous Version | Text Only | Print | Product List | Glossary Off
Versions: 1 2 3 4 5 6 7 8 9 10 11 12 13 14 15 16 17 18 19 20 21 22 23 24 25 26 27 28 29 30 31 32 33 34 35 36 37 38 39 40 41 42 43 44 45 46 47 48 49 50

677
ASUS43 KIWX 250000
RWRIWX

KIWX WEATHER ROUNDUP
NATIONAL WEATHER SERVICE NORTHERN INDIANA
800 PM EDT SUN JUL 24 2016

NOTE: "FAIR" INDICATES FEW OR NO CLOUDS BELOW 12,000 FEET WITH NO
SIGNIFICANT WEATHER AND/OR OBSTRUCTIONS TO VISIBILITY.

* THESE STATIONS ARE NOT UNDER NWS QUALITY CONTROL. THEY ALSO MAY NOT
  REPORT WEATHER SUCH AS PRECIPITATION OR FOG.

INZ001>027-250100-
NORTHERN INDIANA

CITY           SKY/WX    TMP DP  RH WIND       PRES   REMARKS
GARY*          PTSUNNY   90 N/A N/A SW8       29.87F
KNOX*          SUNNY     86  70  58 S9        29.88F
SOUTH BEND     CLOUDY    86  77  74 SW8       29.89F HX  97
6HR MIN TEMP:  85; 6HR MAX TEMP:  89;

GOSHEN         SUNNY     88  76  67 SW10      29.89F HX  99
6HR MIN TEMP:  85; 6HR MAX TEMP:  91;

MONTICELLO*    SUNNY     88  73  61 S7        29.90F HX  96
6HR MIN TEMP:  88; 6HR MAX TEMP:  92;

ANGOLA*          N/A     88  82  84 SW7       29.92F HX 108
FORT WAYNE     CLOUDY    89  75  63 SW8       29.92F HX  99
6HR MIN TEMP:  88; 6HR MAX TEMP:  91;

PERU/GRISSOM   SUNNY     88  77  70 SW9       29.91F HX 100
6HR MIN TEMP:  88; 6HR MAX TEMP:  92;


$$
INZ028>050-250100-
CENTRAL INDIANA

CITY           SKY/WX    TMP DP  RH WIND       PRES   REMARKS
LAFAYETTE      SUNNY     87  79  76 S6        29.90F HX 101
6HR MIN TEMP:  87; 6HR MAX TEMP:  91;

KOKOMO*        MOSUNNY   90  73  58 SW12      29.92F HX  98
6HR MIN TEMP:  90; 6HR MAX TEMP:  93;

MUNCIE*        SUNNY     90  75  61 SW9       29.95S HX 100
6HR MIN TEMP:  89; 6HR MAX TEMP:  94;

INDIANAPOLIS   PTSUNNY   87  76  69 SW10      29.95F HX  97
6HR MIN TEMP:  87; 6HR MAX TEMP:  92;


$$
MIZ043>046-050>051-056>058-064>065-071>073-077>080-250100-
SOUTHWEST LOWER MICHIGAN

CITY           SKY/WX    TMP DP  RH WIND       PRES   REMARKS
BATTLE CREEK   CLOUDY    83  77  82 S10       29.89F
6HR MIN TEMP:  69; 6HR MAX TEMP:  85;

BENTON HARBOR  CLOUDY    87  77  72 S9G20     29.85F HX  99
6HR MIN TEMP:  80; 6HR MAX TEMP:  91;

COLDWATER*     SUNNY     85  76  76 SW5       29.90F
6HR MIN TEMP:  74; 6HR MAX TEMP:  87;

HOLLAND        CLOUDY    86  76  71 SW12      29.85F HX  96
6HR MIN TEMP:  78; 6HR MAX TEMP:  91;

GRAND RAPIDS   CLOUDY    85  76  74 S8        29.85F
6HR MIN TEMP:  79; 6HR MAX TEMP:  88;

KALAMAZOO      MOSUNNY   87  75  67 SW9       29.87F HX  96
6HR MIN TEMP:  77; 6HR MAX TEMP:  89;

STURGIS*       CLOUDY    84  76  76 SW9       29.89S
6HR MIN TEMP:  81; 6HR MAX TEMP:  87;

THREE RIVERS*  FAIR      86  76  70 SW7       29.89S HX  96
6HR MIN TEMP:  82; 6HR MAX TEMP:  89;


$$
OHZ001>008-015>018-024>025-250100-
NORTHWEST OHIO

CITY           SKY/WX    TMP DP  RH WIND       PRES   REMARKS
DEFIANCE       PTCLDY    87  75  67 S8        29.91S HX  96
6HR MIN TEMP:  80; 6HR MAX TEMP:  90;

FINDLAY        CLOUDY    86  71  60 SW9       29.93S
6HR MIN TEMP:  78; 6HR MAX TEMP:  89;

TOLEDO EXPRESS CLOUDY    82  76  81 CALM      29.91S
6HR MIN TEMP:  70; 6HR MAX TEMP:  84; 6HR PCP:  0.08;

TOLEDO METCALF CLOUDY    83  74  74 S7        29.93S
6HR MIN TEMP:  72; 6HR MAX TEMP:  84; 6HR PCP:  0.06;

LIMA           PTCLDY    84  74  71 S7        29.95F
6HR MIN TEMP:  79; 6HR MAX TEMP:  88; 6HR PCP: TRACE;


$$
AND FOR LAKE MICHIGAN COASTAL AND OPEN LAKE BUOY OBSERVATIONS

STATION/POSITION TEMP    WIND        PRES    VSBY  WAVE
                 AIR SEA DIR/SP/G                  HT/PER
                 (F)     (DEG/KT/KT) (MB)    (MI)  (FT/S)
CALUMET HARBOR    89                   N/A
MICHIGAN CITY     87     180/ 15/ 17   N/A
BURNS HARBOR      87     200/ 16/ 23 1011.2F
SAINT JOSEPH      87     200/ 13/ 18 1012.5R
SOUTH LAKE BUOY   78 72  200/ 10/ 12 1009.5          2/ 4
4 MI NW BRIDGMAN  80 74  190/  6/  8 1011.2F         2/ 3
MICHIGAN CITY     83 74  210/ 12/ 16   N/A           2/ 3

$$
&&




USA.gov is the U.S. government's official web portal to all federal, state and local government web resources and services.